Location: Unspecified
(0.0000°N, 0.0000°E)
Time: 17:17:05
(UTC+00:00)

CORIOLIS - Visible Passes

Search period start: 06 May 2021 00:00
Search period end: 16 May 2021 00:00
Orbit: 818 x 838 km, 98.7° (Epoch: 05 May)

Date Brightness Start Highest point End Pass type
(mag) Time Alt. Az. Time Alt. Az. Time Alt. Az.
06 May 6.1 05:26:04 10° NE 05:30:43 31° ESE 05:35:22 10° SSE visible
07 May 6.8 05:08:48 10° ENE 05:12:28 19° ESE 05:16:08 10° SSE visible
08 May 7.2 04:52:51 10° E 04:54:13 11° ESE 04:55:35 10° ESE visible
08 May 6.9 19:11:58 10° SW 19:15:03 15° WSW 19:18:07 10° WNW visible
09 May 6.4 18:52:25 10° SSW 18:56:48 25° WSW 19:01:11 10° NW visible
10 May 5.6 18:33:27 10° S 18:38:32 41° WSW 18:43:37 10° NNW visible
11 May 4.6 18:14:52 10° S 18:20:17 68° WSW 18:25:40 10° NNW visible
12 May 6.5 05:16:53 10° NE 05:21:05 24° ESE 05:25:18 10° SSE visible
13 May 6.9 05:00:02 10° ENE 05:02:50 14° ESE 05:05:38 10° SE visible
13 May 7.1 19:21:48 10° SW 19:23:41 12° WSW 19:25:33 10° W visible
14 May 6.7 19:01:34 10° SSW 19:05:27 20° WSW 19:09:19 10° WNW visible
15 May 6.0 18:42:23 10° SSW 18:47:11 32° WSW 18:51:59 10° NW visible
